Location: Ústí nad Labem
(50.6611°N, 14.0531°E)
Time: 19:34:34
(UTC+02:00)

S-56A Canister/Altair - Pass Details

Date: 04 May 2025
Orbit: 633 x 2485 km, 38.9° (Epoch: 12 May)

Event Time Altitude Azimuth Distance (km) Brightness Sun altitude
Rises 23:01:34 0° 257° (WSW) 3,215 11.0 -18.2°
Reaches altitude 10° 23:04:12 10° 242° (WSW) 2,458 10.1 -18.4°
Maximum altitude 23:08:39 23° 191° (S) 2,012 9.2 -18.7°
Enters shadow 23:08:55 23° 188° (S) 2,034 9.2 -18.8°
